#timestamp,LO_Frequency,Hit,StdDev 
1556053215.6,286047000.9,N
1556053235.5,286047000.9,N
1556053255.3,286047000.9,N
1556053275.1,286046999.8,N
1556053295.9,286047000.5,N
1556053315.7,286047000.0,N
1556053335.6,286047000.6,N
1556053355.4,286046999.5,N
1556053375.2,286046997.5,N
1556053395.1,286046995.0,Y
1556053396.0,286046995.0,P
1556053415.8,286046994.9,N
1556053435.6,286046998.3,N
1556053455.5,286046999.2,N
1556053475.3,286046997.7,N
1556053495.2,286046995.2,N
1556053515.9,286046997.6,N
1556053535.7,286047001.1,N
1556053555.6,286047001.6,N
1556053575.5,286047004.3,N
1556053595.3,286047001.1,N
1556053615.1,286046998.4,N
1556053635.9,286046999.5,N
1556053655.7,286046998.4,N
1556053675.5,286046998.6,N
1556053695.4,286047001.2,N
1556053715.2,286046999.7,N
1556053735.1,286047001.6,N
1556053736.0,286047001.6,N
1556053755.8,286047001.0,N
1556053775.6,286046998.2,N
1556053795.5,286046999.3,N
1556053815.3,286046998.2,N
1556053835.2,286047001.5,N
1556053855.9,286047001.5,N
1556053875.7,286047004.0,N
1556053895.6,286047005.8,N
1556053915.4,286047002.9,N
1556053935.3,286047005.9,N
1556053955.1,286047005.9,N
1556053975.8,286047004.8,N
1556053995.7,286047003.7,N
1556054015.5,286047004.1,N
1556054035.4,286047005.5,N
1556054055.2,286047006.0,N
1556054075.0,286047003.6,N
1556054075.9,286047003.6,N
1556054095.8,286047003.3,N
1556054115.6,286047004.2,N
1556054135.4,286047002.7,N
1556054155.3,286047001.8,N
1556054175.1,286047001.2,N
1556054195.9,286046999.6,N
1556054215.7,286046999.3,N
1556054235.5,286047000.9,N
1556054255.4,286047002.7,N
1556054275.2,286047002.7,N
1556054295.1,286047001.4,N
1556054296.0,286047001.4,N
1556054315.8,286047001.5,N
1556054335.6,286047005.5,N
1556054355.5,286047004.1,N
1556054375.3,286047004.4,N
1556054395.1,286047003.7,N
1556054415.9,286047003.2,N
1556054435.7,286047003.0,N
1556054455.6,286047004.3,N
1556054475.4,286047003.1,N
1556054495.2,286047005.6,Y
1556054515.1,286047000.2,P
1556054516.0,286047000.2,N
1556054535.8,286047000.3,N
1556054555.6,286046999.8,N
1556054575.5,286047001.2,N
1556054595.3,286047000.3,N
1556054615.2,286047000.2,N
1556054635.9,286047002.5,N
1556054655.7,286047001.5,N
1556054675.6,286047003.2,N
1556054695.4,286047002.1,N
1556054715.2,286047002.7,N
1556054735.1,286047000.7,N
1556054736.0,286047000.7,N
1556054755.8,286047001.1,N
1556054775.7,286046999.5,N
1556054795.5,286046999.5,N
1556054815.3,286046999.5,N
1556054835.2,286046998.8,N
1556054855.0,286046999.2,N
1556054855.9,286046999.2,N
1556054875.7,286046998.3,N
1556054895.6,286047001.1,N
1556054915.4,286047001.2,N
1556054935.3,286047000.5,N
1556054955.7,286046998.6,N
1556054975.5,286046998.3,N
1556054995.4,286046999.2,N
1556055015.2,286046999.3,N
1556055035.1,286046999.6,N
1556055036.0,286046999.6,N
1556055055.8,286046999.5,N
1556055075.6,286046997.2,N
1556055095.5,286046997.8,N
1556055115.3,286046998.8,N
1556055135.1,286046997.0,N
1556055155.9,286046995.0,Y
1556055175.7,286046997.5,P
1556055195.6,286046995.6,P
1556055215.4,286046993.3,P
1556055235.2,286046994.5,N
1556055255.1,286046996.4,N
1556055256.0,286046996.4,N
1556055275.8,286046993.9,Y
1556055295.7,286046999.1,P
1556055315.5,286046997.9,N
1556055335.3,286046995.1,P
1556055355.2,286046997.7,N
1556055375.0,286046996.7,N
1556055375.9,286046996.7,N
1556055395.8,286046996.7,N
1556055415.6,286046999.6,N
1556055435.4,286046999.4,N
1556055455.3,286046998.6,N
1556055475.1,286046998.6,N
1556055495.9,286046996.5,N
1556055515.7,286046996.7,N
1556055535.5,286046996.7,N
1556055555.4,286046997.4,N
1556055575.2,286046994.9,Y
1556055595.0,286046998.9,P
1556055595.9,286046998.9,N
1556055615.8,286046999.2,N
1556055635.6,286046996.7,Y
1556055655.5,286047000.0,P
1556055675.3,286046998.7,N
1556055695.1,286046998.2,N
1556055715.9,286047000.5,N
1556055735.7,286047000.1,N
1556055755.5,286047002.6,N
1556055775.4,286047002.5,N
1556055795.2,286047002.3,N
1556055815.1,286047000.9,N
1556055816.0,286047000.9,N
1556055835.8,286047000.5,N
1556055855.6,286046999.0,N
1556055875.5,286046998.5,N
1556055895.3,286047000.7,N
1556055915.1,286047000.8,N
1556055935.9,286047000.8,N
1556055955.9,286047000.3,N
1556055975.7,286047001.2,N
1556055995.5,286047002.7,N
1556056015.4,286047003.9,N
1556056035.2,286047001.9,N
1556056055.0,286047004.1,N
1556056056.0,286047004.1,N
1556056075.8,286047003.5,N
1556056095.6,286047003.9,N
1556056115.5,286047003.9,N
1556056135.3,286047002.3,N
1556056155.1,286047000.1,N
1556056175.9,286047002.6,N
1556056195.7,286047000.4,N
1556056215.5,286047002.0,N
1556056235.4,286046998.8,N
1556056255.2,286046997.3,N
1556056275.1,286046996.7,N
1556056276.0,286046996.7,N
1556056295.8,286046997.9,N
1556056315.6,286046995.2,N
1556056365.5,286046996.3,E
1556056375.4,286046997.3,N
1556056395.3,286047002.4,P
1556056415.1,286047001.2,N
1556056435.8,286047002.6,N
1556056455.7,286047005.6,N
1556056475.5,286047005.0,N
1556056495.3,286047006.7,N
1556056515.2,286047007.6,N
1556056535.0,286047009.0,N
1556056535.9,286047009.0,N
1556056555.8,286047004.8,N
1556056575.6,286047007.3,N
1556056595.4,286047009.2,N
1556056615.3,286047008.3,N
1556056635.1,286047010.6,Y
1556056655.9,286047001.5,P
1556056675.7,286047003.8,N
1556056695.5,286047001.8,N
1556056715.4,286047003.5,N
1556056735.2,286047006.0,Y
1556056755.0,286047001.0,P
1556056755.9,286047001.0,N
1556056775.8,286047000.0,N
1556056795.6,286047002.7,N
